This is the latest recevied weather packets stored in our database for station/object NI2O. If no packets are shown the sender has not sent any weather packets the latest 10 day(s).
| Time | Temp. | Humidity | Pressure | Rain* | Wind** | Luminosity | Snow |
|---|---|---|---|---|---|---|---|
| 1777843006 | 15° C | 32% | 1011.6 hPa | 0 mm | - | 270 W/m² | - |
| 1777841451 | 15° C | 32% | 1011.5 hPa | 0 mm | - | 345 W/m² | - |
| 1777838404 | 14.44° C | 33% | 1011.9 hPa | 0 mm | - | 492 W/m² | - |
| 1777837156 | 13.89° C | 34% | 1012.1 hPa | 0 mm | - | 572 W/m² | - |
| 1777830094 | 11.67° C | 35% | 1012.9 hPa | 0 mm | - | 266 W/m² | - |
| 1777828866 | 11.11° C | 37% | 1013 hPa | 0 mm | - | 818 W/m² | - |
| 1777827639 | 11.11° C | 38% | 1012.7 hPa | 0 mm | - | 753 W/m² | - |
| 1777820887 | 9.44° C | 47% | 1013.6 hPa | 0 mm | - | 707 W/m² | - |
| 1777817819 | 8.33° C | 53% | 1013.8 hPa | 0 mm | - | 545 W/m² | - |
| 1777810455 | 6.67° C | 59% | 1013.2 hPa | 0 mm | - | 83 W/m² | - |
| 1777803091 | 6.67° C | 63% | 1011.7 hPa | 0 mm | - | 1 W/m² | - |
| 1777797589 | 6.11° C | 65% | 1011 hPa | 0 mm | - | 0 W/m² | - |
| 1777792658 | 6.67° C | 71% | 1010.2 hPa | 0 mm | - | 0 W/m² | - |
| 1777784983 | 8.89° C | 61% | 1010.9 hPa | 0 mm | - | 0 W/m² | - |
| 1777783143 | 8.89° C | 59% | 1011.2 hPa | 0 mm | - | 0 W/m² | - |
| 1777781935 | 9.44° C | 56% | 1011.5 hPa | 0 mm | - | 0 W/m² | - |
| 1777780688 | 9.44° C | 54% | 1011.6 hPa | 0 mm | - | 0 W/m² | - |
| 1777779460 | 10° C | 53% | 1011.7 hPa | 0 mm | - | 0 W/m² | - |
| 1777777006 | 10° C | 52% | 1011.5 hPa | 0 mm | - | 0 W/m² | - |
| 1777776392 | 10° C | 51% | 1011.5 hPa | 0 mm | - | 0 W/m² | - |
| 1777770868 | 11.11° C | 47% | 1011.3 hPa | 0 mm | - | 0 W/m² | - |
| 1777767798 | 11.67° C | 43% | 1010.7 hPa | 0 mm | - | 0 W/m² | - |
| 1777765343 | 12.78° C | 40% | 1010.4 hPa | 0 mm | - | 12 W/m² | - |
| 1777763502 | 13.33° C | 40% | 1010.5 hPa | 0 mm | - | 30 W/m² | - |
| 1777762889 | 12.78° C | 39% | 1010.5 hPa | 0 mm | - | 39 W/m² | - |
* Rain latest hour (hover to see other rain measurements)
** Current wind speed in m/s (hover to see current wind gust speed)